Time,TemperatureF,DewpointF,PressureIn,WindDirection,WindDirectionDegrees,WindSpeedMPH,WindSpeedGustMPH,Humidity,HourlyPrecipIn,Conditions,Clouds,dailyrainin,SolarRadiationWatts/m^2,SoftwareType,DateUTC
2013-01-15 00:13:00,65.3,60.0,30.08,East,100,0.0,0.0,84,0.00,,,0.00,0,weatherlink.com 1.10,2013-01-15 05:13:00,
2013-01-15 00:28:00,64.8,60.0,30.08,East,100,0.0,0.0,85,0.00,,,0.00,0,weatherlink.com 1.10,2013-01-15 05:28:00,
2013-01-15 00:58:00,63.9,59.0,30.09,East,100,0.0,0.0,85,0.00,,,0.00,0,weatherlink.com 1.10,2013-01-15 05:58:00,
2013-01-15 01:13:00,63.2,59.0,30.09,East,100,0.0,0.0,85,0.00,,,0.00,0,weatherlink.com 1.10,2013-01-15 06:13:00,
2013-01-15 01:28:00,62.7,58.0,30.08,East,100,0.0,0.0,85,0.00,,,0.00,0,weatherlink.com 1.10,2013-01-15 06:28:00,
2013-01-15 01:43:00,62.3,58.0,30.08,East,100,0.0,0.0,86,0.00,,,0.00,0,weatherlink.com 1.10,2013-01-15 06:43:00,
2013-01-15 01:58:00,61.6,57.0,30.07,East,100,0.0,0.0,86,0.00,,,0.00,0,weatherlink.com 1.10,2013-01-15 06:58:00,
2013-01-15 02:14:00,61.5,58.0,30.08,East,100,0.0,0.0,87,0.00,,,0.00,0,weatherlink.com 1.10,2013-01-15 07:14:00,
2013-01-15 02:29:00,61.2,58.0,30.07,East,100,0.0,0.0,88,0.00,,,0.00,0,weatherlink.com 1.10,2013-01-15 07:29:00,
2013-01-15 02:44:00,60.9,57.0,30.07,East,100,0.0,0.0,88,0.00,,,0.00,0,weatherlink.com 1.10,2013-01-15 07:44:00,
2013-01-15 02:59:00,60.7,57.0,30.07,East,100,0.0,0.0,88,0.00,,,0.00,0,weatherlink.com 1.10,2013-01-15 07:59:00,
2013-01-15 03:14:00,60.4,57.0,30.07,East,100,0.0,0.0,89,0.00,,,0.00,0,weatherlink.com 1.10,2013-01-15 08:14:00,
2013-01-15 03:29:00,60.2,57.0,30.06,East,100,0.0,0.0,89,0.00,,,0.00,0,weatherlink.com 1.10,2013-01-15 08:29:00,
2013-01-15 03:44:00,59.9,57.0,30.06,East,100,0.0,0.0,89,0.00,,,0.00,0,weatherlink.com 1.10,2013-01-15 08:44:00,
2013-01-15 03:59:00,59.6,57.0,30.06,East,100,0.0,0.0,90,0.00,,,0.00,0,weatherlink.com 1.10,2013-01-15 08:59:00,
2013-01-15 04:14:00,59.5,57.0,30.05,East,100,0.0,0.0,90,0.00,,,0.00,0,weatherlink.com 1.10,2013-01-15 09:14:00,
2013-01-15 04:29:00,59.3,56.0,30.05,East,100,0.0,0.0,90,0.00,,,0.00,0,weatherlink.com 1.10,2013-01-15 09:29:00,
2013-01-15 04:44:00,59.3,57.0,30.04,East,100,0.0,0.0,91,0.00,,,0.00,0,weatherlink.com 1.10,2013-01-15 09:44:00,
2013-01-15 04:59:00,59.3,57.0,30.04,East,100,0.0,0.0,91,0.00,,,0.00,0,weatherlink.com 1.10,2013-01-15 09:59:00,
2013-01-15 05:14:00,59.3,57.0,30.04,East,100,0.0,0.0,91,0.00,,,0.00,0,weatherlink.com 1.10,2013-01-15 10:14:00,
2013-01-15 05:29:00,59.5,57.0,30.04,East,100,0.0,0.0,92,0.00,,,0.00,0,weatherlink.com 1.10,2013-01-15 10:29:00,
2013-01-15 05:44:00,59.8,58.0,30.04,East,100,0.0,0.0,92,0.00,,,0.00,0,weatherlink.com 1.10,2013-01-15 10:44:00,
2013-01-15 05:59:00,59.9,58.0,30.04,East,100,0.0,0.0,92,0.00,,,0.00,0,weatherlink.com 1.10,2013-01-15 10:59:00,
2013-01-15 06:14:00,60.1,58.0,30.04,East,100,0.0,0.0,92,0.00,,,0.00,0,weatherlink.com 1.10,2013-01-15 11:14:00,
2013-01-15 06:29:00,59.9,58.0,30.04,East,100,0.0,0.0,93,0.00,,,0.00,0,weatherlink.com 1.10,2013-01-15 11:29:00,
2013-01-15 06:44:00,59.8,58.0,30.05,East,100,0.0,0.0,93,0.00,,,0.00,0,weatherlink.com 1.10,2013-01-15 11:44:00,
2013-01-15 06:59:00,59.8,58.0,30.04,East,100,0.0,0.0,93,0.00,,,0.00,0,weatherlink.com 1.10,2013-01-15 11:59:00,
2013-01-15 07:14:00,59.8,58.0,30.05,East,100,0.0,0.0,93,0.00,,,0.00,0,weatherlink.com 1.10,2013-01-15 12:14:00,
2013-01-15 07:29:00,59.8,58.0,30.05,East,100,0.0,0.0,93,0.00,,,0.00,7,weatherlink.com 1.10,2013-01-15 12:29:00,
2013-01-15 07:44:00,59.5,58.0,30.06,East,100,0.0,0.0,93,0.00,,,0.00,18,weatherlink.com 1.10,2013-01-15 12:44:00,
2013-01-15 07:59:00,60.1,58.0,30.07,East,100,0.0,0.0,94,0.00,,,0.00,49,weatherlink.com 1.10,2013-01-15 12:59:00,
2013-01-15 08:14:00,61.3,60.0,30.07,East,100,0.0,0.0,95,0.00,,,0.00,65,weatherlink.com 1.10,2013-01-15 13:14:00,
2013-01-15 08:29:00,62.9,62.0,30.07,East,100,0.0,0.0,96,0.00,,,0.00,47,weatherlink.com 1.10,2013-01-15 13:29:00,
2013-01-15 08:44:00,64.7,64.0,30.07,East,100,0.0,0.0,96,0.00,,,0.00,65,weatherlink.com 1.10,2013-01-15 13:44:00,
2013-01-15 08:59:00,66.1,65.0,30.08,SSE,163,0.0,3.0,96,0.00,,,0.00,40,weatherlink.com 1.10,2013-01-15 13:59:00,
2013-01-15 09:14:00,67.1,66.0,30.08,SW,227,0.0,3.0,96,0.00,,,0.00,40,weatherlink.com 1.10,2013-01-15 14:14:00,
2013-01-15 09:29:00,67.8,67.0,30.08,SW,224,0.0,5.0,96,0.00,,,0.00,88,weatherlink.com 1.10,2013-01-15 14:29:00,
2013-01-15 09:44:00,68.3,67.0,30.08,SW,215,0.0,3.0,96,0.00,,,0.00,65,weatherlink.com 1.10,2013-01-15 14:44:00,
2013-01-15 09:59:00,68.6,67.0,30.08,SW,223,0.0,5.0,95,0.00,,,0.00,46,weatherlink.com 1.10,2013-01-15 14:59:00,
2013-01-15 10:14:00,69.3,67.0,30.08,SW,227,0.0,4.0,93,0.00,,,0.00,58,weatherlink.com 1.10,2013-01-15 15:14:00,
2013-01-15 10:30:00,70.1,67.0,30.07,SSE,166,0.0,6.0,91,0.00,,,0.00,113,weatherlink.com 1.10,2013-01-15 15:30:00,
2013-01-15 10:45:00,71.5,68.0,30.07,South,178,0.0,6.0,87,0.00,,,0.00,93,weatherlink.com 1.10,2013-01-15 15:45:00,
2013-01-15 11:00:00,72.5,67.0,30.06,SW,216,0.0,8.0,82,0.00,,,0.00,250,weatherlink.com 1.10,2013-01-15 16:00:00,
2013-01-15 11:15:00,73.2,66.0,30.06,West,263,0.0,9.0,78,0.00,,,0.00,269,weatherlink.com 1.10,2013-01-15 16:15:00,
2013-01-15 11:30:00,73.7,65.0,30.05,SSE,161,1.0,7.0,75,0.00,,,0.00,113,weatherlink.com 1.10,2013-01-15 16:30:00,
2013-01-15 11:45:00,74.4,65.0,30.04,WSW,254,0.0,6.0,73,0.00,,,0.00,163,weatherlink.com 1.10,2013-01-15 16:45:00,
2013-01-15 12:00:00,75.1,65.0,30.03,WSW,250,1.0,7.0,70,0.00,,,0.00,113,weatherlink.com 1.10,2013-01-15 17:00:00,
2013-01-15 12:15:00,75.8,64.0,30.02,SSE,167,0.0,5.0,68,0.00,,,0.00,155,weatherlink.com 1.10,2013-01-15 17:15:00,
2013-01-15 12:30:00,76.7,64.0,30.02,SSW,210,0.0,6.0,65,0.00,,,0.00,183,weatherlink.com 1.10,2013-01-15 17:30:00,
2013-01-15 12:48:00,78.1,64.0,30.01,South,173,0.0,4.0,63,0.00,,,0.00,584,weatherlink.com 1.10,2013-01-15 17:48:00,
2013-01-15 13:00:00,78.8,63.0,30.01,ESE,107,0.0,4.0,58,0.00,,,0.00,773,weatherlink.com 1.10,2013-01-15 18:00:00,
2013-01-15 13:15:00,79.6,62.0,30.00,SW,217,1.0,8.0,55,0.00,,,0.00,647,weatherlink.com 1.10,2013-01-15 18:15:00,
2013-01-15 13:30:00,80.1,62.0,29.99,ESE,119,0.0,4.0,54,0.00,,,0.00,485,weatherlink.com 1.10,2013-01-15 18:30:00,
2013-01-15 13:45:00,80.3,62.0,29.99,SSW,196,1.0,8.0,53,0.00,,,0.00,596,weatherlink.com 1.10,2013-01-15 18:45:00,
2013-01-15 14:00:00,80.9,62.0,29.98,SW,227,3.0,6.0,53,0.00,,,0.00,230,weatherlink.com 1.10,2013-01-15 19:00:00,
2013-01-15 14:16:00,81.6,61.0,29.98,West,266,0.0,10.0,50,0.00,,,0.00,564,weatherlink.com 1.10,2013-01-15 19:16:00,
2013-01-15 14:31:00,82.0,61.0,29.98,SSW,194,1.0,8.0,49,0.00,,,0.00,130,weatherlink.com 1.10,2013-01-15 19:31:00,
2013-01-15 14:45:00,81.2,61.0,29.98,WSW,242,0.0,9.0,50,0.00,,,0.00,229,weatherlink.com 1.10,2013-01-15 19:45:00,
2013-01-15 15:00:00,81.1,61.0,29.98,WSW,242,0.0,5.0,51,0.00,,,0.00,88,weatherlink.com 1.10,2013-01-15 20:00:00,
2013-01-15 15:15:00,80.7,61.0,29.97,SSW,205,0.0,7.0,51,0.00,,,0.00,223,weatherlink.com 1.10,2013-01-15 20:15:00,
2013-01-15 15:31:00,80.5,61.0,29.97,West,280,0.0,7.0,51,0.00,,,0.00,308,weatherlink.com 1.10,2013-01-15 20:31:00,
2013-01-15 15:45:00,80.7,61.0,29.98,WSW,242,0.0,5.0,51,0.00,,,0.00,313,weatherlink.com 1.10,2013-01-15 20:45:00,
2013-01-15 16:01:00,80.9,64.0,29.98,ESE,119,0.0,5.0,56,0.00,,,0.00,250,weatherlink.com 1.10,2013-01-15 21:01:00,
2013-01-15 16:16:00,80.1,64.0,29.98,East,101,0.0,3.0,59,0.00,,,0.00,183,weatherlink.com 1.10,2013-01-15 21:16:00,
2013-01-15 16:30:00,79.4,64.0,29.98,SE,128,0.0,3.0,60,0.00,,,0.00,86,weatherlink.com 1.10,2013-01-15 21:30:00,
2013-01-15 16:46:00,78.1,64.0,29.99,ESE,109,0.0,3.0,62,0.00,,,0.00,65,weatherlink.com 1.10,2013-01-15 21:46:00,
2013-01-15 17:01:00,77.2,64.0,29.99,East,100,2.0,4.0,63,0.00,,,0.00,51,weatherlink.com 1.10,2013-01-15 22:01:00,
2013-01-15 17:16:00,76.5,64.0,29.99,East,101,0.0,3.0,65,0.00,,,0.00,32,weatherlink.com 1.10,2013-01-15 22:16:00,
2013-01-15 17:31:00,76.0,64.0,29.99,East,101,0.0,1.0,66,0.00,,,0.00,16,weatherlink.com 1.10,2013-01-15 22:31:00,
2013-01-15 17:46:00,75.3,64.0,29.99,East,101,0.0,3.0,68,0.00,,,0.00,0,weatherlink.com 1.10,2013-01-15 22:46:00,
2013-01-15 18:01:00,74.6,64.0,29.99,East,101,0.0,3.0,70,0.00,,,0.00,0,weatherlink.com 1.10,2013-01-15 23:01:00,
2013-01-15 18:31:00,73.0,63.0,30.00,ESE,108,0.0,2.0,71,0.00,,,0.00,0,weatherlink.com 1.10,2013-01-15 23:31:00,
2013-01-15 18:46:00,72.5,63.0,30.00,ESE,117,0.0,4.0,72,0.00,,,0.00,0,weatherlink.com 1.10,2013-01-15 23:46:00,
2013-01-15 19:01:00,72.1,63.0,30.00,ESE,117,0.0,2.0,73,0.00,,,0.00,0,weatherlink.com 1.10,2013-01-16 00:01:00,
2013-01-15 19:16:00,71.6,63.0,30.00,ESE,116,0.0,2.0,74,0.00,,,0.00,0,weatherlink.com 1.10,2013-01-16 00:16:00,
2013-01-15 19:31:00,71.3,63.0,30.00,ESE,116,0.0,1.0,75,0.00,,,0.00,0,weatherlink.com 1.10,2013-01-16 00:31:00,
2013-01-15 19:46:00,70.9,63.0,30.00,ESE,116,0.0,1.0,76,0.00,,,0.00,0,weatherlink.com 1.10,2013-01-16 00:46:00,
2013-01-15 20:01:00,70.6,63.0,29.99,ESE,116,0.0,1.0,77,0.00,,,0.00,0,weatherlink.com 1.10,2013-01-16 01:01:00,
2013-01-15 20:16:00,70.3,63.0,29.99,ESE,116,0.0,1.0,78,0.00,,,0.00,0,weatherlink.com 1.10,2013-01-16 01:16:00,
2013-01-15 20:31:00,70.1,64.0,29.99,ESE,116,0.0,2.0,80,0.00,,,0.00,0,weatherlink.com 1.10,2013-01-16 01:31:00,
2013-01-15 20:46:00,69.8,63.0,29.99,ESE,116,0.0,1.0,80,0.00,,,0.00,0,weatherlink.com 1.10,2013-01-16 01:46:00,
2013-01-15 21:01:00,69.6,64.0,30.00,ESE,116,0.0,1.0,81,0.00,,,0.00,0,weatherlink.com 1.10,2013-01-16 02:01:00,
2013-01-15 21:16:00,69.4,64.0,29.99,ESE,116,0.0,2.0,82,0.00,,,0.00,0,weatherlink.com 1.10,2013-01-16 02:16:00,
2013-01-15 21:31:00,69.4,64.0,30.00,ESE,116,0.0,1.0,82,0.00,,,0.00,0,weatherlink.com 1.10,2013-01-16 02:31:00,
2013-01-15 21:46:00,69.3,64.0,29.99,SSW,194,0.0,2.0,83,0.00,,,0.00,0,weatherlink.com 1.10,2013-01-16 02:46:00,
2013-01-15 22:01:00,69.1,64.0,29.99,SSW,194,2.0,2.0,83,0.00,,,0.00,0,weatherlink.com 1.10,2013-01-16 03:01:00,
2013-01-15 22:16:00,69.1,64.0,30.00,SSW,194,0.0,1.0,83,0.00,,,0.00,0,weatherlink.com 1.10,2013-01-16 03:16:00,
2013-01-15 22:31:00,68.9,64.0,29.99,SSW,194,0.0,2.0,84,0.00,,,0.00,0,weatherlink.com 1.10,2013-01-16 03:31:00,
2013-01-15 22:46:00,68.9,64.0,30.00,SSW,194,0.0,1.0,84,0.00,,,0.00,0,weatherlink.com 1.10,2013-01-16 03:46:00,
2013-01-15 23:01:00,68.9,64.0,29.99,SSW,194,0.0,1.0,84,0.00,,,0.00,0,weatherlink.com 1.10,2013-01-16 04:01:00,
2013-01-15 23:16:00,68.9,64.0,29.99,SSW,194,0.0,1.0,84,0.00,,,0.00,0,weatherlink.com 1.10,2013-01-16 04:16:00,
2013-01-15 23:31:00,68.8,64.0,29.99,SSW,194,0.0,0.0,85,0.00,,,0.00,0,weatherlink.com 1.10,2013-01-16 04:31:00,
2013-01-15 23:46:00,68.8,64.0,29.99,SSW,194,0.0,0.0,85,0.00,,,0.00,0,weatherlink.com 1.10,2013-01-16 04:46:00,